"2009-10-21 00:00:00",1345246,8.25,61.38,3.839,0.674,7.27,101.1886,2.332,3.684,97.1,0,109.7,13.53,3.09,23.4
"2009-10-21 00:00:30",1345247,7.886,61.12,4.202,0.744,7.168,101.19,2.336,3.645,97.1,0,109.7,13.53,3.10,23.1
"2009-10-21 00:01:00",1345248,7.86,60.77,4.41,0.781,7.142,101.188,2.331,3.64,97.1,0,109.7,13.53,3.09,22.8
"2009-10-21 00:01:30",1345249,7.972,57.98,4.344,0.579,7.263,101.1892,2.334,3.655,97.1,0,109.7,13.53,3.09,20.0
"2009-10-21 00:02:00",1345250,8.11,56.8,4.294,0.62,7.223,101.1903,2.336,3.673,97.1,0,109.7,13.53,3.10,18.8
"2009-10-21 00:02:30",1345251,8.32,59.02,3.414,0.547,7.371,101.1895,2.334,3.663,97.1,0,109.7,13.53,3.09,21.0
"2009-10-21 00:03:00",1345252,8.37,60.55,3.675,0.663,7.319,101.1895,2.334,3.652,97.1,0,109.7,13.53,3.09,22.5
"2009-10-21 00:03:30",1345253,8.24,63.06,3.024,0.497,7.237,101.1889,2.333,3.656,97.1,0,109.7,13.53,3.09,25.1
"2009-10-21 00:04:00",1345254,8.13,61.85,3.705,0.512,7.325,101.1886,2.332,3.668,97.1,0,109.7,13.53,3.09,23.8
"2009-10-21 00:04:30",1345255,8.23,61.21,4.022,0.543,7.29,101.1895,2.334,3.669,97.1,0,109.7,13.53,3.09,23.2
"2009-10-21 00:05:00",1345256,7.96,59.75,4.753,0.6,7.437,101.1886,2.332,3.647,97.1,0,109.7,13.53,3.09,21.8
"2009-10-21 00:05:30",1345257,8.3,59.87,2.883,0.637,7.193,101.1889,2.333,3.637,97.1,0,109.7,13.53,3.09,21.9
"2009-10-21 00:06:00",1345258,8.14,58.4,3.748,0.391,7.217,101.1903,2.336,3.678,97.1,0,109.7,13.53,3.10,20.4
"2009-10-21 00:06:30",1345259,8.02,59.83,3.326,0.632,7.148,101.1906,2.337,3.665,97.1,0,109.7,13.53,3.10,21.8
"2009-10-21 00:07:00",1345260,7.806,61.74,3.171,0.68,7.305,101.1914,2.339,3.644,97.1,0,109.7,13.53,3.10,23.7
"2009-10-21 00:07:30",1345261,7.878,59.94,3.378,0.524,7.15,101.1917,2.34,3.657,97.1,0,109.7,13.53,3.10,21.9
"2009-10-21 00:08:00",1345262,7.72,57.67,4.011,0.497,7.299,101.1951,2.349,3.676,97.1,0,109.7,13.53,3.11,19.7
"2009-10-21 00:08:30",1345263,7.915,58.55,2.623,0.684,7.186,101.1946,2.347,3.662,97.1,0,109.7,13.53,3.11,20.5
"2009-10-21 00:09:00",1345264,7.667,60.07,3.837,0.669,7.244,101.1946,2.347,3.654,97.1,0,109.7,13.53,3.11,22.1
"2009-10-21 00:09:30",1345265,7.517,56.26,2.857,0.634,7.074,101.1971,2.354,3.659,97.1,0,109.7,13.53,3.11,18.3
"2009-10-21 00:10:00",1345266,7.317,59.54,4.733,0.429,7.257,101.2019,2.366,3.67,97.1,0,109.7,13.53,3.13,21.5
"2009-10-21 00:10:30",1345267,7.253,58.02,3.628,0.54,7.225,101.2039,2.371,3.661,97.1,0,109.7,13.53,3.13,20.0
"2009-10-21 00:11:00",1345268,7.546,57.31,3.491,0.613,7.168,101.2053,2.375,3.668,97.1,0,109.7,13.53,3.13,19.3
"2009-10-21 00:11:30",1345269,7.908,55.79,3.369,0.466,7.061,101.2107,2.388,3.664,97.1,0,109.7,13.53,3.15,17.8
"2009-10-21 00:12:00",1345270,7.789,54.75,3.705,0.527,7.062,101.2152,2.4,3.68,97.1,0,109.7,13.53,3.16,16.8
"2009-10-21 00:12:30",1345271,7.758,53.98,3.935,0.552,7.115,101.2166,2.404,3.669,97.1,0,109.7,13.53,3.16,16.0
"2009-10-21 00:13:00",1345272,7.943,55.15,4.732,0.573,7.33,101.2183,2.408,3.667,97.1,0,109.7,13.53,3.17,17.2
"2009-10-21 00:13:30",1345273,8.26,55.98,3.455,0.556,7.233,101.2189,2.409,3.684,97.2,0,109.7,13.53,3.17,18.0
"2009-10-21 00:14:00",1345274,8.14,55.35,3.477,0.68,7.177,101.2194,2.411,3.691,97.2,0,109.7,13.53,3.17,17.3
"2009-10-21 00:14:30",1345275,7.778,59.61,3.372,0.675,7.165,101.2183,2.408,3.669,97.2,0,109.7,13.53,3.17,21.6
"2009-10-21 00:15:00",1345276,7.787,57.44,4.19,0.661,7.288,101.218,2.407,3.672,97.2,0,109.7,13.53,3.17,19.4
"2009-10-21 00:15:30",1345277,8.32,57.49,3.636,0.317,7.326,101.2163,2.403,3.68,97.1,0,109.7,13.53,3.16,19.5
"2009-10-21 00:16:00",1345278,7.65,58.73,4.529,0.59,7.395,101.2149,2.399,3.718,97.2,0,109.7,13.53,3.16,20.7
"2009-10-21 00:16:30",1345279,6.8,53.27,4.235,0.65,7.007,101.2129,2.394,3.67,97.2,0,109.7,13.53,3.15,15.3
"2009-10-21 00:17:00",1345280,5.905,55.8,4.409,0.865,6.52,101.2112,2.39,3.695,97.2,0,109.7,13.53,3.15,17.8
"2009-10-21 00:17:30",1345281,4.318,48.03,5.794,0.968,3.431,101.2076,2.38,3.435,96.9,0,109.7,13.54,3.14,10.0
"2009-10-21 00:18:00",1345282,3.353,46.45,1.947,0.131,2.809,101.2098,2.386,3.391,96.9,0,109.7,13.57,3.15,8.5
"2009-10-21 00:18:30",1345283,5.049,50.45,5.635,1.407,5.779,101.216,2.402,3.578,97.1,0,109.7,13.54,3.16,12.5
"2009-10-21 00:19:00",1345284,6.762,56.96,4.372,0.631,8.25,101.2194,2.411,3.696,97.2,0,109.7,13.54,3.17,19.0
"2009-10-21 00:19:30",1345285,6.74,57.27,4.805,0.856,8.59,101.2217,2.417,3.702,97.2,0,109.7,13.54,3.18,19.3
"2009-10-21 00:20:00",1345286,7.147,63.78,5.561,0.681,8.44,101.222,2.417,3.714,97.2,0,109.7,13.54,3.18,25.8
"2009-10-21 00:20:30",1345287,7.224,59.02,4.129,0.698,8.01,101.222,2.417,3.723,97.2,0,109.7,13.53,3.18,21.0
"2009-10-21 00:21:00",1345288,7.052,58.22,7.168,0.61,8.01,101.222,2.417,3.707,97.2,0,109.7,13.53,3.18,20.2
"2009-10-21 00:21:30",1345289,6.264,49.66,4.102,0.514,7.536,101.222,2.417,3.701,97.2,0,109.7,13.53,3.18,11.7
"2009-10-21 00:22:00",1345290,6.025,58.7,7.251,0.482,7.394,101.222,2.417,3.739,97.2,0,109.7,13.53,3.18,20.7
"2009-10-21 00:22:30",1345291,5.325,58.86,6.336,1.136,5.871,101.222,2.417,3.588,97.1,0,109.7,13.53,3.18,20.9
"2009-10-21 00:23:00",1345292,3.497,52.52,1.952,0.097,2.7,101.222,2.417,3.427,96.9,0,109.7,13.57,3.18,14.5
"2009-10-21 00:23:30",1345293,4.947,58.55,5.645,1.12,5.51,101.222,2.417,3.541,97,0,109.7,13.54,3.18,20.5
"2009-10-21 00:24:00",1345294,5.578,57.91,6.216,0.855,7.145,101.222,2.417,3.667,97.2,0,109.7,13.54,3.18,19.9
"2009-10-21 00:24:30",1345295,5.902,56.12,4.382,0.75,7.998,101.222,2.417,3.758,97.2,0,109.7,13.54,3.18,18.1
"2009-10-21 00:25:00",1345296,5.755,59.91,4.905,0.456,8.12,101.222,2.417,3.731,97.2,0,109.7,13.54,3.18,21.9
"2009-10-21 00:25:30",1345297,5.589,58.89,6.525,1.118,6.722,101.222,2.417,3.706,97.2,0,109.7,13.54,3.18,20.9
"2009-10-21 00:26:00",1345298,5.829,63.79,6.115,1.215,6.572,101.222,2.417,3.665,97.2,0,109.7,13.54,3.18,25.8
"2009-10-21 00:26:30",1345299,5.269,54.79,6.648,1.085,4.988,101.222,2.417,3.56,97,0,109.7,13.54,3.18,16.8
"2009-10-21 00:27:00",1345300,5.168,54.77,6.262,1.201,5.468,101.222,2.417,3.636,97.1,0,109.7,13.54,3.18,16.8
"2009-10-21 00:27:30",1345301,6.385,56.6,5.109,0.956,7.622,101.222,2.417,3.757,97.2,0,109.7,13.54,3.18,18.6
"2009-10-21 00:28:00",1345302,6.34,60.71,5.567,0.874,8,101.222,2.417,3.754,97.2,0,109.7,13.54,3.18,22.7
"2009-10-21 00:28:30",1345303,6.645,57.74,4.134,0.774,7.946,101.222,2.417,3.757,97.2,0,109.7,13.54,3.18,19.7
"2009-10-21 00:29:00",1345304,6.296,55.56,4.818,0.873,7.352,101.222,2.417,3.688,97.2,0,109.7,13.54,3.18,17.6
"2009-10-21 00:29:30",1345305,6.929,51.46,3.338,0.817,7.294,101.222,2.417,3.747,97.2,0,109.7,13.54,3.18,13.5
"2009-10-21 00:30:00",1345306,6.983,48.72,4.267,0.443,7.418,101.222,2.417,3.754,97.2,0,109.7,13.54,3.18,10.7
"2009-10-21 00:30:30",1345307,6.178,48.26,2.94,0.875,6.987,101.222,2.417,3.765,97.2,0,109.7,13.54,3.18,10.3
"2009-10-21 00:31:00",1345308,5.601,51.1,7.33,1.177,5.397,101.222,2.417,3.685,97.1,0,109.7,13.54,3.18,13.1
"2009-10-21 00:31:30",1345309,6.243,52.55,7.715,1.076,6.54,101.222,2.417,3.679,97.2,0,109.7,13.54,3.18,14.5
"2009-10-21 00:32:00",1345310,6.732,52.43,6.281,1.143,7.46,101.222,2.417,3.712,97.2,0,109.7,13.54,3.18,14.4
"2009-10-21 00:32:30",1345311,6.912,52.51,4.225,0.698,8.71,101.222,2.417,3.772,97.3,0,109.7,13.54,3.18,14.5
"2009-10-21 00:33:00",1345312,6.903,49.94,3.77,0.658,8.65,101.222,2.417,3.754,97.3,0,109.7,13.54,3.18,11.9
"2009-10-21 00:33:30",1345313,7.241,47.69,4.2,0.578,8.56,101.222,2.417,3.762,97.2,0,109.7,13.54,3.18,9.7
"2009-10-21 00:34:00",1345314,6.634,47.13,3.596,0.771,8.34,101.222,2.417,3.748,97.3,0,109.7,13.54,3.18,9.1
"2009-10-21 00:34:30",1345315,6.25,49.92,4.922,0.814,8.43,101.222,2.417,3.75,97.2,0,109.7,13.54,3.18,11.9
"2009-10-21 00:35:00",1345316,6.099,50.99,4.493,0.566,7.997,101.222,2.417,3.738,97.3,0,109.7,13.53,3.18,13.0
"2009-10-21 00:35:30",1345317,6.133,50.29,3.834,0.707,7.916,101.222,2.417,3.767,97.2,0,109.8,13.53,3.18,12.3
"2009-10-21 00:36:00",1345318,6.33,51.62,4.402,0.674,7.822,101.222,2.417,3.776,97.3,0,109.7,13.53,3.18,13.6
"2009-10-21 00:36:30",1345319,6.408,54,5.007,0.654,7.934,101.222,2.417,3.755,97.2,0,109.7,13.53,3.18,16.0
"2009-10-21 00:37:00",1345320,6.577,50.71,4.729,0.605,8.04,101.222,2.417,3.758,97.2,0,109.7,13.53,3.18,12.7
"2009-10-21 00:37:30",1345321,5.743,44.52,4.256,0.599,8.02,101.222,2.417,3.748,97.2,0,109.6,13.53,3.18,6.5
"2009-10-21 00:38:00",1345322,5.77,45.07,5.524,0.745,7.818,101.222,2.417,3.773,97.3,0,109.7,13.53,3.18,7.1
"2009-10-21 00:38:30",1345323,5.295,42.04,5.982,1.198,6.023,101.222,2.417,3.602,97.1,0,109.7,13.53,3.18,4.0
"2009-10-21 00:39:00",1345324,4.063,36.71,4.856,0.814,4.218,101.222,2.417,3.619,97.1,0,109.7,13.54,3.18,358.7
"2009-10-21 00:39:30",1345325,5.172,39.58,8,1.306,6.064,101.222,2.417,3.519,97,0,109.7,13.54,3.18,1.6
"2009-10-21 00:40:00",1345326,5.625,44.17,3.905,0.904,8.25,101.222,2.417,3.773,97.3,0,109.7,13.54,3.18,6.2
"2009-10-21 00:40:30",1345327,6.096,46.01,3.879,0.906,8.58,101.222,2.417,3.767,97.3,0,109.7,13.54,3.18,8.0
"2009-10-21 00:41:00",1345328,6.52,47.24,3.587,0.658,8.58,101.222,2.417,3.754,97.3,0,109.7,13.54,3.18,9.2
"2009-10-21 00:41:30",1345329,7.457,47.39,3.58,0.709,8.41,101.222,2.417,3.766,97.3,0,109.7,13.54,3.18,9.4
"2009-10-21 00:42:00",1345330,7.513,46.97,4.122,0.592,8.26,101.222,2.417,3.763,97.3,0,109.7,13.54,3.18,9.0
"2009-10-21 00:42:30",1345331,7.843,45.41,4.114,0.647,8.32,101.222,2.417,3.761,97.3,0,109.7,13.54,3.18,7.4
"2009-10-21 00:43:00",1345332,8.52,47.85,4.948,0.589,8.7,101.222,2.417,3.765,97.3,0,109.7,13.54,3.18,9.8
"2009-10-21 00:43:30",1345333,8.26,46.01,3.352,0.609,8.58,101.222,2.417,3.748,97.3,0,109.7,13.54,3.18,8.0
"2009-10-21 00:44:00",1345334,7.895,46.95,6.203,0.877,8.49,101.2206,2.414,3.767,97.3,0,109.7,13.54,3.17,9.0
"2009-10-21 00:44:30",1345335,8,47.47,4.279,0.807,8.57,101.2107,2.388,3.72,97.3,0,109.7,13.54,3.15,9.5
"2009-10-21 00:45:00",1345336,8.16,49.81,3.743,0.744,8.61,101.1971,2.354,3.736,97.2,0,109.7,13.54,3.11,11.8
"2009-10-21 00:45:30",1345337,8.85,52.15,3.311,0.673,8.67,101.1886,2.332,3.721,97.3,0,109.7,13.54,3.09,14.2
"2009-10-21 00:46:00",1345338,8.94,53.57,4.323,0.565,8.96,101.188,2.331,3.715,97.2,0,109.7,13.54,3.09,15.6
"2009-10-21 00:46:30",1345339,8.44,52.4,5.155,0.771,8.87,101.188,2.331,3.699,97.2,0,109.7,13.54,3.09,14.4
"2009-10-21 00:47:00",1345340,8.02,50.88,4.883,0.805,8.86,101.188,2.331,3.693,97.2,0,109.7,13.54,3.09,12.9
"2009-10-21 00:47:30",1345341,8.53,53.11,3.18,0.369,8.65,101.188,2.331,3.687,97.2,0,109.7,13.54,3.09,15.1
"2009-10-21 00:48:00",1345342,8.27,53.31,3.785,0.532,8.91,101.188,2.331,3.685,97.3,0,109.7,13.54,3.09,15.3
"2009-10-21 00:48:30",1345343,7.9,51.53,3.553,0.673,9,101.188,2.331,3.68,97.2,0,109.7,13.54,3.09,13.5
"2009-10-21 00:49:00",1345344,7.728,52.07,4.172,0.6,9.1,101.188,2.331,3.664,97.3,0,109.7,13.54,3.09,14.1
"2009-10-21 00:49:30",1345345,7.903,54.8,3.939,0.409,9.07,101.188,2.331,3.671,97.3,0,109.7,13.54,3.09,16.8
"2009-10-21 00:50:00",1345346,7.593,53.71,3.613,0.78,8.6,101.188,2.331,3.673,97.3,0,109.7,13.54,3.09,15.7
"2009-10-21 00:50:30",1345347,7.284,52.31,5.158,0.451,8.52,101.1883,2.331,3.645,97.2,0,109.7,13.54,3.09,14.3
"2009-10-21 00:51:00",1345348,7.353,51.22,4.594,0.784,8.59,101.188,2.331,3.663,97.2,0,109.7,13.53,3.09,13.2
"2009-10-21 00:51:30",1345349,7.863,50.87,3.749,0.554,8.34,101.188,2.331,3.671,97.3,0,109.6,13.53,3.09,12.9
"2009-10-21 00:52:00",1345350,7.331,51.9,4.691,0.587,8.53,101.1886,2.332,3.688,97.3,0,109.7,13.53,3.09,13.9
"2009-10-21 00:52:30",1345351,7.032,50.78,5.57,0.676,8.42,101.188,2.331,3.673,97.3,0,109.7,13.53,3.09,12.8
"2009-10-21 00:53:00",1345352,7.268,56.08,4.57,0.705,8.36,101.1886,2.332,3.68,97.3,0,109.7,13.53,3.09,18.1
"2009-10-21 00:53:30",1345353,7.102,53.54,4.538,0.648,8.22,101.1892,2.334,3.693,97.3,0,109.6,13.53,3.09,15.5
"2009-10-21 00:54:00",1345354,7.504,50.99,4.893,0.695,8.23,101.1883,2.331,3.691,97.3,0,109.7,13.53,3.09,13.0
"2009-10-21 00:54:30",1345355,8.15,53.76,4.723,0.3,8.38,101.1892,2.334,3.679,97.3,0,109.7,13.53,3.09,15.8
"2009-10-21 00:55:00",1345356,7.991,48.42,3.864,0.869,8.58,101.1889,2.333,3.665,97.3,0,109.7,13.53,3.09,10.4
"2009-10-21 00:55:30",1345357,8.45,50.14,2.98,0.763,8.35,101.188,2.331,3.669,97.3,0,109.6,13.54,3.09,12.1
"2009-10-21 00:56:00",1345358,8.56,49.22,3.283,0.649,8.5,101.1886,2.332,3.697,97.3,0,109.7,13.54,3.09,11.2
"2009-10-21 00:56:30",1345359,8.31,48.2,3.55,0.698,8.53,101.1886,2.332,3.672,97.3,0,109.7,13.54,3.09,10.2
"2009-10-21 00:57:00",1345360,8.24,47.48,3.416,0.677,8.44,101.188,2.331,3.648,97.3,0,109.7,13.54,3.09,9.5
"2009-10-21 00:57:30",1345361,8.43,48.75,3.86,0.387,8.69,101.1781,2.305,3.654,97.2,0,109.6,13.54,3.07,10.8
"2009-10-21 00:58:00",1345362,8.53,48.87,3.899,0.669,8.34,101.1558,2.248,3.63,97.3,0,109.7,13.54,3.01,10.9
"2009-10-21 00:58:30",1345363,8.46,47.44,4.327,0.57,8.34,101.1544,2.245,3.634,97.2,0,109.7,13.54,3.00,9.4
"2009-10-21 00:59:00",1345364,8.22,46.96,3.537,0.696,8.44,101.1544,2.245,3.608,97.2,0,109.7,13.54,3.00,9.0
"2009-10-21 00:59:30",1345365,7.957,46.35,3.397,0.655,8.27,101.1547,2.245,3.583,97.2,0,109.7,13.54,3.01,8.3
"2009-10-21 01:00:00",1345366,8.13,46.89,3.909,0.728,8.33,101.1547,2.245,3.614,97.2,0,109.7,13.54,3.01,8.9
"2009-10-21 01:00:30",1345367,8.27,49.16,3.84,0.672,8.28,101.1547,2.245,3.572,97.2,0,109.7,13.54,3.01,11.2
"2009-10-21 01:01:00",1345368,8.27,51.3,3.981,0.638,8.02,101.1504,2.235,3.561,97.2,0,109.7,13.54,2.99,13.3
"2009-10-21 01:01:30",1345369,8.23,52.05,3.887,0.313,8.26,101.1456,2.222,3.566,97.2,0,109.7,13.54,2.98,14.0
"2009-10-21 01:02:00",1345370,7.923,53.71,3.28,0.608,7.873,101.1371,2.201,3.56,97.3,0,109.7,13.54,2.96,15.7
"2009-10-21 01:02:30",1345371,7.689,55.38,3.169,0.608,7.818,101.136,2.198,3.524,97.2,0,109.7,13.54,2.96,17.4
"2009-10-21 01:03:00",1345372,7.604,56.92,3.889,0.665,7.761,101.1389,2.205,3.546,97.2,0,109.7,13.54,2.96,18.9
"2009-10-21 01:03:30",1345373,7.82,56.14,3.851,0.312,7.747,101.1372,2.201,3.551,97.2,0,109.7,13.54,2.96,18.1
"2009-10-21 01:04:00",1345374,7.79,59.14,2.948,0.779,7.428,101.1366,2.199,3.538,97.2,0,109.7,13.54,2.96,21.1
"2009-10-21 01:04:30",1345375,8.06,59.17,3.988,0.609,7.514,101.1338,2.192,3.531,97.3,0,109.7,13.54,2.95,21.2
"2009-10-21 01:05:00",1345376,7.999,59.55,4.451,0.45,7.696,101.1369,2.2,3.532,97.2,0,109.7,13.54,2.96,21.5
"2009-10-21 01:05:30",1345377,8.08,62.09,3.312,0.66,7.495,101.1391,2.206,3.549,97.3,0,109.6,13.54,2.97,24.1
"2009-10-21 01:06:00",1345378,8.13,63.05,3.823,0.695,7.31,101.1329,2.19,3.529,97.2,0,109.7,13.54,2.95,25.0
"2009-10-21 01:06:30",1345379,8.13,60.37,3.593,0.653,7.228,101.1298,2.182,3.517,97.2,0,109.7,13.54,2.94,22.4
"2009-10-21 01:07:00",1345380,8.47,57.57,3.576,0.67,7.316,101.123,2.165,3.507,97.2,0,109.7,13.54,2.92,19.6
"2009-10-21 01:07:30",1345381,8.8,55.49,3.369,0.522,7.256,101.1219,2.162,3.501,97.3,0,109.7,13.54,2.92,17.5
"2009-10-21 01:08:00",1345382,8.86,55.95,3.736,0.564,7.454,101.1213,2.16,3.521,97.3,0,109.7,13.53,2.92,18.0
"2009-10-21 01:08:30",1345383,8.92,55.72,3.798,0.551,7.661,101.1222,2.162,3.504,97.3,0,109.7,13.53,2.92,17.7
"2009-10-21 01:09:00",1345384,8.9,56.88,3.835,0.672,7.559,101.1216,2.161,3.494,97.2,0,109.7,13.53,2.92,18.9
"2009-10-21 01:09:30",1345385,9.06,57.91,3.841,0.291,7.769,101.1224,2.163,3.492,97.2,0,109.7,13.53,2.92,19.9
"2009-10-21 01:10:00",1345386,8.72,55.44,3.763,0.638,7.674,101.123,2.165,3.497,97.3,0,109.7,13.53,2.92,17.4
"2009-10-21 01:10:30",1345387,9.18,55.41,3.428,0.774,7.822,101.121,2.16,3.477,97.2,0,109.7,13.53,2.92,17.4
"2009-10-21 01:11:00",1345388,9.62,54.78,3.768,0.574,7.948,101.1213,2.16,3.474,97.3,0,109.7,13.53,2.92,16.8
"2009-10-21 01:11:30",1345389,9.76,55.8,3.443,0.523,7.979,101.1213,2.16,3.46,97.2,0,109.6,13.54,2.92,17.8
"2009-10-21 01:12:00",1345390,9.51,52.75,4.339,0.564,7.979,101.1137,2.141,3.458,97.3,0,109.7,13.54,2.90,14.8
"2009-10-21 01:12:30",1345391,9.39,52.04,3.978,0.6,8.05,101.1069,2.124,3.463,97.2,0,109.7,13.54,2.88,14.0
"2009-10-21 01:13:00",1345392,9.17,53.07,4.006,0.663,8.02,101.1015,2.11,3.456,97.2,0,109.7,13.54,2.87,15.1
"2009-10-21 01:13:30",1345393,9.56,54.65,3.908,0.559,8.2,101.0936,2.09,3.461,97.2,0,109.7,13.54,2.85,16.7
"2009-10-21 01:14:00",1345394,9.56,54.83,3.539,0.696,8.04,101.0902,2.081,3.45,97.3,0,109.7,13.54,2.84,16.8
"2009-10-21 01:14:30",1345395,9.64,55.17,3.507,0.654,7.903,101.0899,2.08,3.436,97.3,0,109.7,13.54,2.84,17.2
"2009-10-21 01:15:00",1345396,9.73,56.59,3.412,0.63,8.04,101.0899,2.08,3.414,97.3,0,109.7,13.54,2.84,18.6
"2009-10-21 01:15:30",1345397,10.2,56.84,3.696,0.335,8.08,101.0917,2.085,3.404,97.2,0,109.7,13.54,2.84,18.8
"2009-10-21 01:16:00",1345398,10.05,57.8,3.982,0.567,8.19,101.0931,2.088,3.421,97.2,0,109.7,13.54,2.85,19.8
"2009-10-21 01:16:30",1345399,10.22,58.14,3.811,0.58,8.21,101.0868,2.072,3.381,97.2,0,109.7,13.54,2.83,20.1
"2009-10-21 01:17:00",1345400,10.28,58.34,4.248,0.598,8.39,101.0764,2.046,3.384,97.2,0,109.7,13.54,2.80,20.3
"2009-10-21 01:17:30",1345401,10.5,59.19,3.39,0.675,8.53,101.0704,2.031,3.384,97.2,0,109.6,13.54,2.79,21.2
"2009-10-21 01:18:00",1345402,10.51,58.77,3.757,0.523,8.46,101.0648,2.016,3.37,97.2,0,109.7,13.54,2.78,20.8
"2009-10-21 01:18:30",1345403,10.61,58.91,4.338,0.543,8.63,101.0628,2.011,3.357,97.2,0,109.7,13.54,2.77,20.9
"2009-10-21 01:19:00",1345404,10.49,60.38,3.248,0.7,8.63,101.0586,2,3.344,97.2,0,109.7,13.54,2.76,22.4
"2009-10-21 01:19:30",1345405,10.65,59.42,4.011,0.538,8.51,101.0591,2.002,3.334,97.2,0,109.7,13.54,2.76,21.4
"2009-10-21 01:20:00",1345406,10.52,57.94,4.035,0.552,8.7,101.0603,2.005,3.332,97.2,0,109.7,13.54,2.76,19.9
"2009-10-21 01:20:30",1345407,10.46,58.7,3.899,0.663,8.72,101.0606,2.005,3.324,97.2,0,109.7,13.54,2.76,20.7
"2009-10-21 01:21:00",1345408,10.77,60.26,4.057,0.567,8.57,101.0608,2.006,3.306,97.2,0,109.7,13.54,2.76,22.3
"2009-10-21 01:21:30",1345409,10.98,60.76,3.677,0.323,8.68,101.062,2.009,3.319,97.2,0,109.7,13.54,2.77,22.8
"2009-10-21 01:22:00",1345410,10.92,60.82,3.24,0.666,8.43,101.0617,2.008,3.317,97.2,0,109.7,13.54,2.77,22.8
"2009-10-21 01:22:30",1345411,10.9,60.66,3.257,0.652,8.49,101.0606,2.005,3.288,97.2,0,109.7,13.54,2.76,22.7
"2009-10-21 01:23:00",1345412,10.89,60.57,3.333,0.688,8.7,101.062,2.009,3.274,97.2,0,109.7,13.54,2.77,22.6
"2009-10-21 01:23:30",1345413,11.2,61,3.845,0.361,8.7,101.0623,2.01,3.29,97.2,0,109.6,13.54,2.77,23.0
"2009-10-21 01:24:00",1345414,11.18,62.55,4.058,0.587,8.55,101.062,2.009,3.31,97.2,0,109.7,13.54,2.77,24.5
"2009-10-21 01:24:30",1345415,11.26,61.63,3.748,0.554,8.65,101.0614,2.008,3.296,97.2,0,109.7,13.53,2.77,23.6
"2009-10-21 01:25:00",1345416,11.32,62.59,4.189,0.571,8.75,101.0614,2.008,3.297,97.2,0,109.7,13.54,2.77,24.6
"2009-10-21 01:25:30",1345417,11.25,62.79,3.763,0.666,8.62,101.06,2.004,3.284,97.2,0,109.6,13.53,2.76,24.8
"2009-10-21 01:26:00",1345418,11.34,60.23,4.229,0.428,8.66,101.0611,2.007,3.278,97.2,0,109.7,13.54,2.77,22.2
"2009-10-21 01:26:30",1345419,11.31,61.04,4.332,0.599,8.79,101.0606,2.005,3.292,97.2,0,109.7,13.54,2.76,23.0
"2009-10-21 01:27:00",1345420,11.12,60.49,3.444,0.698,8.76,101.064,2.014,3.269,97.3,0,109.7,13.54,2.77,22.5
"2009-10-21 01:27:30",1345421,11.32,61.8,3.28,0.499,8.61,101.0614,2.008,3.285,97.2,0,109.7,13.54,2.77,23.8
"2009-10-21 01:28:00",1345422,11.37,61.91,3.888,0.588,8.52,101.0623,2.01,3.292,97.3,0,109.7,13.54,2.77,23.9
"2009-10-21 01:28:30",1345423,11.11,65.71,4.077,0.565,8.41,101.0626,2.01,3.286,97.3,0,109.7,13.54,2.77,27.7
"2009-10-21 01:29:00",1345424,11.35,64.91,3.997,0.664,8.44,101.0623,2.01,3.285,97.2,0,109.7,13.54,2.77,26.9
"2009-10-21 01:29:30",1345425,11.61,64.01,3.753,0.385,8.71,101.0611,2.007,3.292,97.2,0,109.6,13.54,2.77,26.0
"2009-10-21 01:30:00",1345426,11.45,65.08,3.958,0.695,8.5,101.0626,2.01,3.276,97.3,0,109.7,13.54,2.77,27.1
"2009-10-21 01:30:30",1345427,11.76,63.81,4.263,0.543,8.55,101.0643,2.015,3.293,97.2,0,109.7,13.54,2.77,25.8
"2009-10-21 01:31:00",1345428,11.64,64.45,3.41,0.645,8.53,101.0629,2.011,3.28,97.2,0,109.7,13.54,2.77,26.4
"2009-10-21 01:31:30",1345429,11.72,64.47,3.361,0.531,8.38,101.0614,2.008,3.264,97.3,0,109.7,13.54,2.77,26.5
"2009-10-21 01:32:00",1345430,11.62,64.77,3.668,0.514,8.49,101.0637,2.013,3.287,97.3,0,109.7,13.54,2.77,26.8
"2009-10-21 01:32:30",1345431,11.55,65.07,3.926,0.68,8.44,101.0631,2.012,3.261,97.3,0,109.7,13.54,2.77,27.1
"2009-10-21 01:33:00",1345432,11.71,63.17,4.444,0.546,8.68,101.062,2.009,3.264,97.2,0,109.7,13.54,2.77,25.2
"2009-10-21 01:33:30",1345433,11.49,65.23,3.619,0.599,8.53,101.0626,2.01,3.26,97.2,0,109.6,13.54,2.77,27.2
"2009-10-21 01:34:00",1345434,11.58,62.81,3.351,0.721,8.58,101.0637,2.013,3.269,97.3,0,109.7,13.54,2.77,24.8
"2009-10-21 01:34:30",1345435,12.03,61.99,4.395,0.404,8.56,101.0623,2.01,3.26,97.2,0,109.7,13.54,2.77,24.0
"2009-10-21 01:35:00",1345436,11.93,61.67,3.779,0.682,8.72,101.0626,2.01,3.259,97.3,0,109.7,13.54,2.77,23.7
"2009-10-21 01:35:30",1345437,11.47,64.64,3.439,0.573,8.49,101.064,2.014,3.277,97.3,0,109.6,13.54,2.77,26.6
"2009-10-21 01:36:00",1345438,11.89,62.02,4.326,0.578,8.67,101.0654,2.018,3.275,97.3,0,109.7,13.54,2.78,24.0
"2009-10-21 01:36:30",1345439,11.72,63.87,4.65,0.551,8.77,101.0651,2.017,3.27,97.3,0,109.7,13.54,2.78,25.9
"2009-10-21 01:37:00",1345440,11.68,63.16,4.452,0.433,8.99,101.0631,2.012,3.271,97.3,0,109.7,13.54,2.77,25.2
"2009-10-21 01:37:30",1345441,11.62,63.21,3.204,0.525,9.01,101.0637,2.013,3.269,97.3,0,109.7,13.55,2.77,25.2
"2009-10-21 01:38:00",1345442,11.37,63.3,3.896,0.762,8.97,101.0651,2.017,3.307,97.3,0,109.7,13.55,2.78,25.3
"2009-10-21 01:38:30",1345443,11.21,63.45,3.755,0.569,8.9,101.0674,2.023,3.281,97.3,0,109.7,13.55,2.78,25.5
"2009-10-21 01:39:00",1345444,11.06,64.08,3.946,0.576,8.92,101.0699,2.029,3.296,97.3,0,109.7,13.54,2.79,26.1
"2009-10-21 01:39:30",1345445,11.19,66.5,3.684,0.388,8.78,101.0762,2.045,3.289,97.3,0,109.7,13.54,2.80,28.5
"2009-10-21 01:40:00",1345446,11.11,64.87,4.395,0.572,8.86,101.0796,2.054,3.311,97.3,0,109.7,13.54,2.81,26.9
"2009-10-21 01:40:30",1345447,10.88,66.58,4.444,0.665,8.72,101.0787,2.052,3.314,97.3,0,109.7,13.54,2.81,28.6
"2009-10-21 01:41:00",1345448,10.81,65.37,4.279,0.602,8.67,101.0866,2.072,3.311,97.3,0,109.7,13.54,2.83,27.4
"2009-10-21 01:41:30",1345449,10.84,67.15,3.818,0.364,8.63,101.09,2.081,3.33,97.3,0,109.6,13.54,2.84,29.2
"2009-10-21 01:42:00",1345450,10.43,66.5,3.708,0.65,8.53,101.0963,2.096,3.327,97.3,0,109.7,13.54,2.86,28.5
"2009-10-21 01:42:30",1345451,10.39,65.19,3.343,0.68,8.4,101.0988,2.103,3.317,97.3,0,109.7,13.54,2.86,27.2
"2009-10-21 01:43:00",1345452,10.57,65.41,4.042,0.683,8.48,101.0991,2.104,3.317,97.3,0,109.7,13.54,2.86,27.4
"2009-10-21 01:43:30",1345453,10.5,65.31,3.396,0.535,8.58,101.1011,2.109,3.343,97.3,0,109.7,13.54,2.87,27.3
"2009-10-21 01:44:00",1345454,10.29,65.26,4.272,0.532,8.34,101.1014,2.109,3.35,97.3,0,109.7,13.54,2.87,27.3
"2009-10-21 01:44:30",1345455,10.24,64.57,3.858,0.553,8.32,101.0999,2.106,3.351,97.3,0,109.7,13.54,2.87,26.6
"2009-10-21 01:45:00",1345456,10.21,64.32,3.889,0.748,8.33,101.1017,2.11,3.375,97.3,0,109.7,13.54,2.87,26.3
"2009-10-21 01:45:30",1345457,10.5,64.01,3.695,0.546,8.21,101.1017,2.11,3.34,97.3,0,109.7,13.54,2.87,26.0
"2009-10-21 01:46:00",1345458,10.33,64.34,3.885,0.552,8.18,101.1011,2.109,3.364,97.3,0,109.7,13.54,2.87,26.3
"2009-10-21 01:46:30",1345459,10.56,62.31,3.942,0.554,8.17,101.1005,2.107,3.355,97.3,0,109.7,13.54,2.87,24.3
"2009-10-21 01:47:00",1345460,10.39,63.25,3.952,0.551,8.31,101.1025,2.112,3.353,97.3,0,109.7,13.54,2.87,25.2
"2009-10-21 01:47:30",1345461,10.34,62.86,4.02,0.386,8.16,101.1022,2.112,3.355,97.3,0,109.6,13.54,2.87,24.9
"2009-10-21 01:48:00",1345462,9.84,63.29,4.097,0.642,8.17,101.1019,2.111,3.366,97.3,0,109.7,13.54,2.87,25.3
"2009-10-21 01:48:30",1345463,9.67,64.99,3.997,0.677,7.933,101.1042,2.117,3.368,97.3,0,109.7,13.54,2.88,27.0
"2009-10-21 01:49:00",1345464,9.64,63.89,4.125,0.686,8.03,101.1031,2.114,3.356,97.3,0,109.7,13.54,2.87,25.9
"2009-10-21 01:49:30",1345465,9.87,64.55,3.42,0.588,7.826,101.1051,2.119,3.357,97.3,0,109.7,13.54,2.88,26.6
"2009-10-21 01:50:00",1345466,9.6,65.69,4.041,0.411,7.939,101.1031,2.114,3.358,97.3,0,109.7,13.54,2.87,27.7
"2009-10-21 01:50:30",1345467,9.37,66.81,3.309,0.638,7.608,101.1037,2.115,3.359,97.3,0,109.7,13.54,2.87,28.8